Regional Weather Roundup
Issued by NWS

Home | Current Version | Previous Version | Text Only | Print | Product List | Glossary On
Versions: 1 2 3 4 5 6 7 8 9 10 11 12 13 14 15 16 17 18 19 20 21 22 23 24 25 26 27 28 29 30 31 32 33 34 35 36 37 38 39 40 41 42 43 44 45 46 47 48 49 50
000
ASUS42 KTBW 252317
RWRFL
FLORIDA REGIONAL WEATHER ROUNDUP
NATIONAL WEATHER SERVICE TAMPA BAY RUSKIN FL
700 PM EDT SUN JUN 25 2017

NOTE: "FAIR" INDICATES FEW OR NO CLOUDS BELOW 12,000 FEET WITH NO
SIGNIFICANT WEATHER AND/OR OBSTRUCTIONS TO VISIBILITY.

FLZ001>010-012>015-112-114-115-260000-
PANHANDLE FLORIDA

CITY           SKY/WX    TMP DP  RH WIND       PRES   REMARKS
PENSACOLA      CLOUDY    82  75  79 N6        30.06F
PENSACOLA NAS  CLOUDY    83  77  82 N6        30.05F
MILTON NAS     LGT RAIN  78  76  93 E5        30.08
CRESTVIEW      CLOUDY    83  74  74 CALM      30.09F
DUKE FIELD     FAIR      83  73  69 NE3       30.08S
VALPARAISO     PTSUNNY   84  76  78 NE5       30.08R
MARY ESTHER    DRIZZLE   83  71  65 N5        30.06R
PANAMA CITY    TSTM      77  74  90 CALM      30.09R
TYNDALL AFB    PTSUNNY   81  74  80 N6        30.08R
APALACHICOLA   HVY RAIN  74  74 100 N6        30.09S FOG

STATION/POSITION SKY/WX   TEMP    WIND        PRES    WAVE   SWELL
                          AIR SEA DIR/SP/G            HT/PER HT/PER
                          (F)     (DEG/KT/KT) (MB)    (FT/S) (FT/S)
30.1N   87.6W              82 84   30/ 10/ 12 1017.6F   1/ 6   2/ 6
29.2N   88.2W              83     350/  4/  4 1018.4
28.8N   86.0W              84 85  200/  2/  2 1018.1R   2/ 6   2/ 6
PANAMA CITY BEAC           74 84  330/  9/ 13 1019.5R
TOWER C                    79      10/ 15/ 17 1019.0R
28.5N   84.5W              83 86  230/  4/  6 1017.9    1/ 8   2/ 8

$$
FLZ011-016>038-118-127-128-134-139-239-260000-
NORTH FLORIDA

CITY           SKY/WX    TMP DP  RH WIND       PRES   REMARKS
MARIANNA       CLOUDY    77  75  93 N3        30.07S
TALLAHASSEE    CLOUDY    76  75  97 W5        30.08S
PERRY          MOSUNNY   84  74  70 W9        30.08R
CROSS CITY     PTSUNNY   88  73  62 W14       30.07R HX  96
LAKE CITY      FAIR      86  72  62 NW9       30.06R
GAINESVILLE    CLOUDY    83  74  74 E3        30.06R
WILLISTON      SUNNY     91  75  59 E9G15     30.06R HX 102
PALATKA        FAIR      84  77  79 W5        30.06R
MAYPORT NAS    TSTM      79  74  84 SE10      30.04R
JACKSONVILLE   CLOUDY    88  74  63 NW10      30.03R HX  96
JAX NAS        CLOUDY    87  75  67 SE13      30.04R HX  96
FERNANDINA BEA CLOUDY    84  77  79 CALM      30.04R
ST AUGUSTINE   TSTM      77  74  90 CALM      30.06F

STATION/POSITION SKY/WX   TEMP    WIND        PRES    WAVE   SWELL
                          AIR SEA DIR/SP/G            HT/PER HT/PER
                          (F)     (DEG/KT/KT) (MB)    (FT/S) (FT/S)
SHELL POINT      NOT AVBL
KEATON BEACH               84     280/  9/ 13 1018.0R
CEDAR KEY                  85     280/  8/ 11 1018.4R
FERNANDINA                 86 86   90/  5/  8 1018.5R
30.7N   81.3W                 82                N/A     3/ 4
MAYPORT                    80 85  190/  8/ 15 1017.8R
31.4N   80.9W              74 83  230/  6/ 12 1019.0R   2/ 8   2/ 8
ST AUGUSTINE               78 78  350/  3/  4 1018.3R

$$
FLZ040-043>046-052-053-057-058-063-144-260000-
INTERIOR CENTRAL FLORIDA

CITY           SKY/WX    TMP DP  RH WIND       PRES   REMARKS
OCALA          CLOUDY    86  73  65 SW7       30.06R
THE VILLAGES     N/A     88  73  62 MISG      29.96R HX  96
LEESBURG       MOSUNNY   90  76  63 NW7       30.06R HX 101
SANFORD        CLOUDY    85  74  69 NE3       30.04R
ORLANDO EXEC   PTSUNNY   91  68  46 W13       30.04R HX  95
ORLANDO INTL   PTSUNNY   89  68  49 S3        30.04R
KISSIMMEE      SUNNY     89  74  60 NW12      30.05R HX  98
WINTER HAVEN   CLOUDY    87  71  58 W12       30.05R
LAKELAND       PTSUNNY   84  73  70 NW8       30.05S
BARTOW         FAIR      86  73  66 W9G15     30.05R
SEBRING        CLOUDY    89  71  56 SE9       30.05R HX  95

$$
FLZ041-047-054-059-064-141-147-260000-
EAST CENTRAL FLORIDA

CITY           SKY/WX    TMP DP  RH WIND       PRES   REMARKS
ORMOND BEACH   PTSUNNY   86  68  54 S3        30.06R
DAYTONA BEACH  CLOUDY    86  71  60 VRB3      30.06R THUNDER
DELAND         CLOUDY    86  73  66 NE5       30.05R
NEW SMYRNA BEA MOSUNNY   82  73  74 SE12      30.06R
JFK SPACE CTR  SUNNY     86  74  68 S13G22    30.04R
TITUSVILLE     MOSUNNY   90  72  55 SE12      30.05R HX  96
CAPE CANAVERAL SUNNY     86  76  71 S15       30.04R HX  96
MELBOURNE      SUNNY     88  73  61 SE14      30.05S HX  95
VERO BEACH     PTSUNNY   84  75  74 SE15      30.06F
FT PIERCE      SUNNY     87  75  67 SE13      30.06S HX  96
STUART         MOSUNNY   84  73  70 SE10      30.07F

STATION/POSITION SKY/WX   TEMP    WIND        PRES    WAVE   SWELL
                          AIR SEA DIR/SP/G            HT/PER HT/PER
                          (F)     (DEG/KT/KT) (MB)    (FT/S) (FT/S)
28.5N   80.2W              83     150/ 14/ 16 1019.0
28.9N   78.5W              83 84  150/ 10/ 14 1018.4F   3/ 7   3/ 7
TRIDENT PIER               81 83  150/  8/ 12 1019.3R
28.4N   80.5W                 78                N/A     2/ 9
27.5N   80.2W                 80                N/A     2/ 8

$$
FLZ050-056-061-142-242-148-248-149-249-151-251-155-255-
160-260-260000-
WEST CENTRAL FLORIDA

CITY           SKY/WX    TMP DP  RH WIND       PRES   REMARKS
CRYSTAL RIVER  CLOUDY    88  73  62 W8        30.06S HX  96
INVERNESS      FAIR      82  77  83 CALM      30.06S
BROOKSVILLE    CLOUDY    86  73  65 NW8       30.06F
CLEARWATER AIR FAIR      84  75  74 NW8       30.05F
ST PETE CLEARW MOSUNNY   88  74  63 NW12      30.05S HX  96
TAMPA INTL     CLOUDY    86  74  67 W7        30.06F
TAMPA EXEC     CLOUDY    81  73  78 CALM      30.06F
PLANT CITY     CLOUDY    82  75  78 MISG      30.07F
MACDILL AFB    MOSUNNY   88  76  67 NW5       30.05S HX  99
PETER O KNIGHT PTSUNNY   86  77  74 N5        30.05F HX  97
ST PETERSBURG  SUNNY     89  72  56 NW6       30.03S HX  96
SARASOTA       SUNNY     86  75  69 W8        30.03S HX  95
VENICE         FAIR      86  75  70 W7        30.05S HX  95

STATION/POSITION SKY/WX   TEMP    WIND        PRES    WAVE   SWELL
                          AIR SEA DIR/SP/G            HT/PER HT/PER
                          (F)     (DEG/KT/KT) (MB)    (FT/S) (FT/S)
27.3N   84.2W                 87                N/A     2/ 7
CLEARWATER BEACH           85 88  300/  9/ 11 1018.1S
MIDDLE TAMPA BAY           85     320/ 10/ 12 1017.6F
VENICE                     85 89  290/  8/  9 1017.6R

$$
FLZ066-069-070-075>078-162-262-165-265-260000-
SOUTHWEST FLORIDA AND KEYS

CITY           SKY/WX    TMP DP  RH WIND       PRES   REMARKS
PUNTA GORDA    CLOUDY    80  75  84 SW9       30.06R
FT MYERS       MOSUNNY   83  76  79 NW5       30.04R
SOUTHWEST INTL MOSUNNY   86  72  62 NW7       30.04S
NAPLES         TSTM      78  76  93 N9        30.06R VSB 1
MARCO ISLAND   CLOUDY    88  73  62 CALM      30.05R HX  96
IMMOKALEE      FAIR      90  70  51 SE6       30.04R HX  95
MARATHON       MOSUNNY   86  76  71 E9        30.03F HX  96
KEY WEST NAS   MOSUNNY   85  76  74 E15       30.02F
KEY WEST INTL  SUNNY     86  76  71 E15       30.02F HX  96

STATION/POSITION SKY/WX   TEMP    WIND        PRES    WAVE   SWELL
                          AIR SEA DIR/SP/G            HT/PER HT/PER
                          (F)     (DEG/KT/KT) (MB)    (FT/S) (FT/S)
NAPLES                        89  220/  8/ 10 1017.3F
DRY TORTUGAS               81      50/ 10/ 11 1017.0F
SAND KEY                   83     110/ 15/ 17 1017.1F
LONG KEY                   84 87  140/  7/  9 1017.0F
MOLASSES REEF              83 84  110/  9/ 10 1017.4F

$$
FLZ067-068-071>074-168-172>174-260000-
SOUTHEAST FLORIDA

CITY           SKY/WX    TMP DP  RH WIND       PRES   REMARKS
W PALM BEACH   PTSUNNY   85  72  65 SE14      30.06F
BOCA RATON     SUNNY     84  73  70 SE12      30.06F
FT LAUDER-EXEC MOSUNNY   80  70  71 SE10      30.05F
FT LAUDERDALE  MOSUNNY   86  72  62 SE14      30.04F
POMPANO BEACH  SUNNY     87  74  64 SE12      30.05F HX  95
PEMBROKE PINES SUNNY     87  70  56 E13       30.06F
OPA LOCKA      SUNNY     87  70  56 SE13      30.05F
MIAMI          MOSUNNY   87  70  56 SE10      30.05F
WEST KENDALL   SUNNY     87  71  58 SE12      30.04F
HOMESTEAD      SUNNY     86  76  72 SE10      30.04F HX  97

STATION/POSITION SKY/WX   TEMP    WIND        PRES    WAVE   SWELL
                          AIR SEA DIR/SP/G            HT/PER HT/PER
                          (F)     (DEG/KT/KT) (MB)    (FT/S) (FT/S)
PORT EVERGLADES            85     130/  8/ 10 1017.8F
VIRGINIA KEY               84 88   90/  7/  9 1017.2F
LAKE WORTH                 83 84  140/  9/ 10 1018.9F
FOWEY ROCKS                83 83   80/  8/  9 1018.2F
SETTLEMENT POINT           84     160/  5/  6 1018.5F

$$




USA.gov is the U.S. government's official web portal to all federal, state and local government web resources and services.